contact:dominique.lefevre@mio.osupytheas.fr, maurice.libes@osupytheas.fr, didier.mallarino@osupytheas.fr
Project:EMSO http://www.emso-fr.org/EMSO-France
Depth: 2436.0 m
Title:EMSO Ligure Ouest : Data MII capteur MICROCAT
DateTime_Computer,Latitude,Longitude,Temperature,Conductivity,Pressure,DateTime_Instrument
DateTime_Computer,Latitude,Longitude,degC,S m-1,dbar,DateTime_Instrument
2023-12-25T00:01:17Z,42.805,6.029,13.3046,4.60190,2470.67,2023-12-25T02:03:48Z
2023-12-25T00:04:20Z,42.805,6.029,13.3054,4.60176,2470.707,2023-12-25T02:06:51Z
2023-12-25T00:07:23Z,42.805,6.029,13.3048,4.60159,2470.717,2023-12-25T02:09:54Z
2023-12-25T00:10:26Z,42.805,6.029,13.3050,4.60155,2470.74,2023-12-25T02:12:57Z
2023-12-25T00:13:29Z,42.805,6.029,13.3046,4.60155,2470.67,2023-12-25T02:16:00Z
2023-12-25T00:16:33Z,42.805,6.029,13.3058,4.60178,2470.717,2023-12-25T02:19:03Z
2023-12-25T00:19:36Z,42.805,6.029,13.3055,4.60187,2470.693,2023-12-25T02:22:06Z
2023-12-25T00:22:39Z,42.805,6.029,13.3052,4.60167,2470.707,2023-12-25T02:25:09Z
2023-12-25T00:25:42Z,42.805,6.029,13.3050,4.60175,2470.717,2023-12-25T02:28:12Z
2023-12-25T00:28:45Z,42.805,6.029,13.3061,4.60162,2470.74,2023-12-25T02:31:15Z
2023-12-25T00:31:48Z,42.805,6.029,13.3063,4.60160,2470.693,2023-12-25T02:34:19Z
2023-12-25T00:34:51Z,42.805,6.029,13.3057,4.60155,2470.693,2023-12-25T02:37:22Z
2023-12-25T00:37:54Z,42.805,6.029,13.3051,4.60185,2470.693,2023-12-25T02:40:25Z
2023-12-25T00:40:57Z,42.805,6.029,13.3048,4.60173,2470.707,2023-12-25T02:43:28Z
2023-12-25T00:44:00Z,42.805,6.029,13.3052,4.60170,2470.707,2023-12-25T02:46:31Z
2023-12-25T00:47:03Z,42.805,6.029,13.3045,4.60150,2470.693,2023-12-25T02:49:34Z
2023-12-25T00:50:06Z,42.805,6.029,13.3047,4.60162,2470.693,2023-12-25T02:52:37Z
2023-12-25T00:53:10Z,42.805,6.029,13.3054,4.60161,2470.717,2023-12-25T02:55:40Z
2023-12-25T00:56:13Z,42.805,6.029,13.3059,4.60176,2470.717,2023-12-25T02:58:43Z
2023-12-25T00:59:16Z,42.805,6.029,13.3056,4.60144,2470.74,2023-12-25T03:01:46Z
2023-12-25T01:02:19Z,42.805,6.029,13.3053,4.60162,2470.707,2023-12-25T03:04:49Z
2023-12-25T01:05:22Z,42.805,6.029,13.3047,4.60151,2470.73,2023-12-25T03:07:52Z
2023-12-25T01:08:25Z,42.805,6.029,13.3057,4.60173,2470.717,2023-12-25T03:10:56Z
2023-12-25T01:11:28Z,42.805,6.029,13.3053,4.60158,2470.726,2023-12-25T03:13:59Z
2023-12-25T01:14:31Z,42.805,6.029,13.3048,4.60180,2470.693,2023-12-25T03:17:02Z
2023-12-25T01:17:34Z,42.805,6.029,13.3048,4.60162,2470.717,2023-12-25T03:20:05Z
2023-12-25T01:20:37Z,42.805,6.029,13.3055,4.60152,2470.717,2023-12-25T03:23:08Z
2023-12-25T01:23:40Z,42.805,6.029,13.3046,4.60162,2470.67,2023-12-25T03:26:11Z
2023-12-25T01:26:43Z,42.805,6.029,13.3047,4.60179,2470.707,2023-12-25T03:29:14Z
2023-12-25T01:29:46Z,42.805,6.029,13.3043,4.60162,2470.707,2023-12-25T03:32:17Z
2023-12-25T01:32:50Z,42.805,6.029,13.3049,4.60167,2470.754,2023-12-25T03:35:20Z
2023-12-25T01:35:53Z,42.805,6.029,13.3050,4.60173,2470.717,2023-12-25T03:38:23Z
2023-12-25T01:38:56Z,42.805,6.029,13.3054,4.60162,2470.754,2023-12-25T03:41:26Z
2023-12-25T01:41:59Z,42.805,6.029,13.3054,4.60157,2470.717,2023-12-25T03:44:29Z
2023-12-25T01:45:02Z,42.805,6.029,13.3052,4.60170,2470.73,2023-12-25T03:47:33Z
2023-12-25T01:48:05Z,42.805,6.029,13.3050,4.60162,2470.703,2023-12-25T03:50:36Z
2023-12-25T01:51:08Z,42.805,6.029,13.3058,4.60184,2470.754,2023-12-25T03:53:39Z
2023-12-25T01:54:11Z,42.805,6.029,13.3052,4.60158,2470.693,2023-12-25T03:56:42Z
2023-12-25T01:57:14Z,42.805,6.029,13.3048,4.60162,2470.754,2023-12-25T03:59:45Z
2023-12-25T02:00:17Z,42.805,6.029,13.3048,4.60162,2470.754,2023-12-25T04:02:48Z
2023-12-25T02:03:20Z,42.805,6.029,13.3044,4.60144,2470.717,2023-12-25T04:05:51Z
2023-12-25T02:06:23Z,42.805,6.029,13.3068,4.60177,2470.74,2023-12-25T04:08:54Z
2023-12-25T02:09:27Z,42.805,6.029,13.3053,4.60196,2470.777,2023-12-25T04:11:57Z
2023-12-25T02:12:30Z,42.805,6.029,13.3053,4.60188,2470.754,2023-12-25T04:15:00Z
2023-12-25T02:15:33Z,42.805,6.029,13.3052,4.60171,2470.754,2023-12-25T04:18:03Z
2023-12-25T02:18:36Z,42.805,6.029,13.3070,4.60172,2470.8,2023-12-25T04:21:06Z
2023-12-25T02:21:39Z,42.805,6.029,13.3068,4.60178,2470.763,2023-12-25T04:24:09Z
2023-12-25T02:24:42Z,42.805,6.029,13.3056,4.60164,2470.777,2023-12-25T04:27:13Z
2023-12-25T02:27:45Z,42.805,6.029,13.3059,4.60178,2470.777,2023-12-25T04:30:16Z
2023-12-25T02:30:48Z,42.805,6.029,13.3070,4.60185,2470.777,2023-12-25T04:33:19Z
2023-12-25T02:33:51Z,42.805,6.029,13.3057,4.60158,2470.74,2023-12-25T04:36:22Z
2023-12-25T02:36:54Z,42.805,6.029,13.3052,4.60180,2470.763,2023-12-25T04:39:25Z
2023-12-25T02:39:57Z,42.805,6.029,13.3063,4.60187,2470.787,2023-12-25T04:42:28Z
2023-12-25T02:43:00Z,42.805,6.029,13.3058,4.60148,2470.787,2023-12-25T04:45:31Z
2023-12-25T02:46:04Z,42.805,6.029,13.3067,4.60159,2470.8,2023-12-25T04:48:34Z
2023-12-25T02:49:07Z,42.805,6.029,13.3070,4.60146,2470.787,2023-12-25T04:51:37Z
2023-12-25T02:52:10Z,42.805,6.029,13.3070,4.60148,2470.824,2023-12-25T04:54:40Z
2023-12-25T02:55:13Z,42.805,6.029,13.3064,4.60176,2470.787,2023-12-25T04:57:43Z
2023-12-25T02:58:16Z,42.805,6.029,13.3066,4.60184,2470.777,2023-12-25T05:00:46Z
2023-12-25T03:01:19Z,42.805,6.029,13.3073,4.60165,2470.8,2023-12-25T05:03:50Z
2023-12-25T03:04:22Z,42.805,6.029,13.3070,4.60145,2470.824,2023-12-25T05:06:53Z
2023-12-25T03:07:25Z,42.805,6.029,13.3073,4.60148,2470.847,2023-12-25T05:09:56Z
2023-12-25T03:10:28Z,42.805,6.029,13.3069,4.60133,2470.847,2023-12-25T05:12:59Z
2023-12-25T03:13:31Z,42.805,6.029,13.3056,4.60152,2470.81,2023-12-25T05:16:02Z
2023-12-25T03:16:34Z,42.805,6.029,13.3039,4.60122,2470.847,2023-12-25T05:19:05Z
2023-12-25T03:19:37Z,42.805,6.029,13.3044,4.60134,2470.824,2023-12-25T05:22:08Z
2023-12-25T03:22:40Z,42.805,6.029,13.3052,4.60127,2470.833,2023-12-25T05:25:11Z
2023-12-25T03:25:44Z,42.805,6.029,13.3085,4.60147,2470.81,2023-12-25T05:28:14Z
2023-12-25T03:28:47Z,42.805,6.029,13.3061,4.60149,2470.857,2023-12-25T05:31:17Z
2023-12-25T03:31:50Z,42.805,6.029,13.3075,4.60155,2470.833,2023-12-25T05:34:20Z
2023-12-25T03:34:53Z,42.805,6.029,13.3084,4.60163,2470.833,2023-12-25T05:37:23Z
2023-12-25T03:37:56Z,42.805,6.029,13.3070,4.60138,2470.847,2023-12-25T05:40:27Z
2023-12-25T03:40:59Z,42.805,6.029,13.3059,4.60157,2470.833,2023-12-25T05:43:30Z
2023-12-25T03:44:02Z,42.805,6.029,13.3043,4.60121,2470.833,2023-12-25T05:46:33Z
2023-12-25T03:47:05Z,42.805,6.029,13.3036,4.60125,2470.857,2023-12-25T05:49:36Z
2023-12-25T03:50:08Z,42.805,6.029,13.3039,4.60121,2470.857,2023-12-25T05:52:39Z
2023-12-25T03:53:11Z,42.805,6.029,13.3056,4.60129,2470.88,2023-12-25T05:55:42Z
2023-12-25T03:56:14Z,42.805,6.029,13.3038,4.60117,2470.857,2023-12-25T05:58:45Z
2023-12-25T03:59:17Z,42.805,6.029,13.3033,4.60125,2470.833,2023-12-25T06:01:48Z
2023-12-25T04:02:21Z,42.805,6.029,13.3036,4.60121,2470.871,2023-12-25T06:04:51Z
2023-12-25T04:05:24Z,42.805,6.029,13.3035,4.60116,2470.857,2023-12-25T06:07:54Z
2023-12-25T04:08:27Z,42.805,6.029,13.3034,4.60116,2470.88,2023-12-25T06:10:57Z
2023-12-25T04:11:30Z,42.805,6.029,13.3034,4.60118,2470.871,2023-12-25T06:14:00Z
2023-12-25T04:14:33Z,42.805,6.029,13.3035,4.60117,2470.904,2023-12-25T06:17:03Z
2023-12-25T04:17:36Z,42.805,6.029,13.3037,4.60120,2470.894,2023-12-25T06:20:07Z
2023-12-25T04:20:39Z,42.805,6.029,13.3033,4.60119,2470.88,2023-12-25T06:23:10Z
2023-12-25T04:23:42Z,42.805,6.029,13.3036,4.60119,2470.894,2023-12-25T06:26:13Z
2023-12-25T04:26:45Z,42.805,6.029,13.3036,4.60117,2470.894,2023-12-25T06:29:16Z
2023-12-25T04:29:48Z,42.805,6.029,13.3039,4.60114,2470.88,2023-12-25T06:32:19Z
2023-12-25T04:32:51Z,42.805,6.029,13.3036,4.60115,2470.857,2023-12-25T06:35:22Z
2023-12-25T04:35:54Z,42.805,6.029,13.3034,4.60117,2470.904,2023-12-25T06:38:25Z
2023-12-25T04:38:58Z,42.805,6.029,13.3035,4.60117,2470.88,2023-12-25T06:41:28Z
2023-12-25T04:42:01Z,42.805,6.029,13.3035,4.60117,2470.857,2023-12-25T06:44:31Z
2023-12-25T04:45:04Z,42.805,6.029,13.3036,4.60116,2470.894,2023-12-25T06:47:34Z
2023-12-25T04:48:07Z,42.805,6.029,13.3036,4.60115,2470.88,2023-12-25T06:50:37Z
2023-12-25T04:51:10Z,42.805,6.029,13.3039,4.60115,2470.88,2023-12-25T06:53:40Z
2023-12-25T04:54:13Z,42.805,6.029,13.3037,4.60115,2470.894,2023-12-25T06:56:44Z
2023-12-25T04:57:16Z,42.805,6.029,13.3036,4.60114,2470.894,2023-12-25T06:59:47Z
2023-12-25T05:00:19Z,42.805,6.029,13.3036,4.60117,2470.871,2023-12-25T07:02:50Z
2023-12-25T05:03:22Z,42.805,6.029,13.3039,4.60117,2470.904,2023-12-25T07:05:53Z
2023-12-25T05:06:25Z,42.805,6.029,13.3038,4.60116,2470.927,2023-12-25T07:08:56Z
2023-12-25T05:09:28Z,42.805,6.029,13.3039,4.60115,2470.94,2023-12-25T07:11:59Z
2023-12-25T05:12:31Z,42.805,6.029,13.3036,4.60115,2470.904,2023-12-25T07:15:02Z
2023-12-25T05:15:34Z,42.805,6.029,13.3035,4.60117,2470.927,2023-12-25T07:18:05Z
2023-12-25T05:18:38Z,42.805,6.029,13.3036,4.60119,2470.88,2023-12-25T07:21:08Z
2023-12-25T05:21:41Z,42.805,6.029,13.3035,4.60117,2470.857,2023-12-25T07:24:11Z
2023-12-25T05:24:44Z,42.805,6.029,13.3036,4.60115,2470.88,2023-12-25T07:27:14Z
2023-12-25T05:27:47Z,42.805,6.029,13.3034,4.60116,2470.904,2023-12-25T07:30:17Z
2023-12-25T05:30:50Z,42.805,6.029,13.3040,4.60114,2470.904,2023-12-25T07:33:21Z
2023-12-25T05:33:53Z,42.805,6.029,13.3032,4.60115,2470.927,2023-12-25T07:36:24Z
2023-12-25T05:36:56Z,42.805,6.029,13.3035,4.60115,2470.927,2023-12-25T07:39:27Z
2023-12-25T05:39:59Z,42.805,6.029,13.3036,4.60115,2470.95,2023-12-25T07:42:30Z
2023-12-25T05:43:02Z,42.805,6.029,13.3040,4.60118,2470.917,2023-12-25T07:45:33Z
2023-12-25T05:46:05Z,42.805,6.029,13.3036,4.60120,2470.94,2023-12-25T07:48:36Z
2023-12-25T05:49:08Z,42.805,6.029,13.3034,4.60114,2470.913,2023-12-25T07:51:39Z
2023-12-25T05:52:11Z,42.805,6.029,13.3036,4.60115,2470.927,2023-12-25T07:54:42Z
2023-12-25T05:55:15Z,42.805,6.029,13.3038,4.60116,2470.904,2023-12-25T07:57:45Z
2023-12-25T05:58:18Z,42.805,6.029,13.3039,4.60116,2470.927,2023-12-25T08:00:48Z
2023-12-25T06:01:21Z,42.805,6.029,13.3034,4.60116,2470.913,2023-12-25T08:03:51Z
2023-12-25T06:04:24Z,42.805,6.029,13.3038,4.60118,2470.904,2023-12-25T08:06:54Z
2023-12-25T06:07:27Z,42.805,6.029,13.3038,4.60117,2470.964,2023-12-25T08:09:57Z
2023-12-25T06:10:30Z,42.805,6.029,13.3034,4.60117,2470.904,2023-12-25T08:13:01Z
2023-12-25T06:13:33Z,42.805,6.029,13.3038,4.60117,2470.95,2023-12-25T08:16:04Z
2023-12-25T06:16:36Z,42.805,6.029,13.3033,4.60116,2470.927,2023-12-25T08:19:07Z
2023-12-25T06:19:39Z,42.805,6.029,13.3037,4.60122,2470.904,2023-12-25T08:22:10Z
2023-12-25T06:22:42Z,42.805,6.029,13.3035,4.60119,2470.917,2023-12-25T08:25:13Z
2023-12-25T06:25:45Z,42.805,6.029,13.3041,4.60117,2470.927,2023-12-25T08:28:16Z
2023-12-25T06:28:48Z,42.805,6.029,13.3034,4.60119,2470.904,2023-12-25T08:31:19Z
2023-12-25T06:31:52Z,42.805,6.029,13.3035,4.60116,2470.927,2023-12-25T08:34:22Z
2023-12-25T06:34:55Z,42.805,6.029,13.3037,4.60115,2470.88,2023-12-25T08:37:25Z
2023-12-25T06:37:58Z,42.805,6.029,13.3034,4.60117,2470.927,2023-12-25T08:40:28Z
2023-12-25T06:41:01Z,42.805,6.029,13.3038,4.60117,2470.964,2023-12-25T08:43:31Z
2023-12-25T06:44:04Z,42.805,6.029,13.3038,4.60117,2470.927,2023-12-25T08:46:34Z
2023-12-25T06:47:07Z,42.805,6.029,13.3040,4.60116,2470.904,2023-12-25T08:49:38Z
2023-12-25T06:50:10Z,42.805,6.029,13.3041,4.60120,2470.927,2023-12-25T08:52:41Z
2023-12-25T06:53:13Z,42.805,6.029,13.3038,4.60119,2470.917,2023-12-25T08:55:44Z
2023-12-25T06:56:16Z,42.805,6.029,13.3036,4.60120,2470.927,2023-12-25T08:58:47Z
2023-12-25T06:59:19Z,42.805,6.029,13.3035,4.60117,2470.927,2023-12-25T09:01:50Z
2023-12-25T07:02:22Z,42.805,6.029,13.3039,4.60119,2470.927,2023-12-25T09:04:53Z
2023-12-25T07:05:25Z,42.805,6.029,13.3039,4.60117,2470.927,2023-12-25T09:07:56Z
2023-12-25T07:08:29Z,42.805,6.029,13.3040,4.60119,2470.94,2023-12-25T09:10:59Z
2023-12-25T07:11:32Z,42.805,6.029,13.3037,4.60118,2470.927,2023-12-25T09:14:02Z
2023-12-25T07:14:35Z,42.805,6.029,13.3037,4.60120,2470.94,2023-12-25T09:17:05Z
2023-12-25T07:17:38Z,42.805,6.029,13.3034,4.60120,2470.927,2023-12-25T09:20:08Z
2023-12-25T07:20:41Z,42.805,6.029,13.3038,4.60120,2470.927,2023-12-25T09:23:11Z
2023-12-25T07:23:44Z,42.805,6.029,13.3039,4.60117,2470.913,2023-12-25T09:26:15Z
2023-12-25T07:26:47Z,42.805,6.029,13.3039,4.60117,2470.964,2023-12-25T09:29:18Z
2023-12-25T07:29:50Z,42.805,6.029,13.3036,4.60116,2470.904,2023-12-25T09:32:21Z
2023-12-25T07:32:53Z,42.805,6.029,13.3040,4.60117,2470.927,2023-12-25T09:35:24Z
2023-12-25T07:35:56Z,42.805,6.029,13.3051,4.60119,2470.904,2023-12-25T09:38:27Z
2023-12-25T07:38:59Z,42.805,6.029,13.3049,4.60131,2470.88,2023-12-25T09:41:30Z
2023-12-25T07:42:02Z,42.805,6.029,13.3049,4.60132,2470.904,2023-12-25T09:44:33Z
2023-12-25T07:45:05Z,42.805,6.029,13.3054,4.60127,2470.94,2023-12-25T09:47:36Z
2023-12-25T07:48:09Z,42.805,6.029,13.3045,4.60125,2470.94,2023-12-25T09:50:39Z
2023-12-25T07:51:12Z,42.805,6.029,13.3058,4.60142,2470.88,2023-12-25T09:53:42Z
2023-12-25T07:54:15Z,42.805,6.029,13.3062,4.60121,2470.88,2023-12-25T09:56:45Z
2023-12-25T07:57:18Z,42.805,6.029,13.3051,4.60129,2470.927,2023-12-25T09:59:48Z
2023-12-25T08:00:21Z,42.805,6.029,13.3043,4.60115,2470.94,2023-12-25T10:02:51Z
2023-12-25T08:03:24Z,42.805,6.029,13.3043,4.60120,2470.927,2023-12-25T10:05:55Z
2023-12-25T08:06:27Z,42.805,6.029,13.3052,4.60141,2470.89,2023-12-25T10:08:58Z
2023-12-25T08:09:30Z,42.805,6.029,13.3041,4.60134,2470.894,2023-12-25T10:12:01Z
2023-12-25T08:12:33Z,42.805,6.029,13.3048,4.60127,2470.904,2023-12-25T10:15:04Z
2023-12-25T08:15:36Z,42.805,6.029,13.3056,4.60142,2470.88,2023-12-25T10:18:07Z
2023-12-25T08:18:39Z,42.805,6.029,13.3045,4.60122,2470.904,2023-12-25T10:21:10Z
2023-12-25T08:21:42Z,42.805,6.029,13.3046,4.60130,2470.857,2023-12-25T10:24:13Z
2023-12-25T08:24:46Z,42.805,6.029,13.3049,4.60132,2470.88,2023-12-25T10:27:16Z
2023-12-25T08:27:49Z,42.805,6.029,13.3051,4.60127,2470.904,2023-12-25T10:30:19Z
2023-12-25T08:30:52Z,42.805,6.029,13.3046,4.60127,2470.917,2023-12-25T10:33:22Z
2023-12-25T08:33:55Z,42.805,6.029,13.3038,4.60117,2470.88,2023-12-25T10:36:25Z
2023-12-25T08:36:58Z,42.805,6.029,13.3034,4.60116,2470.904,2023-12-25T10:39:29Z
2023-12-25T08:40:01Z,42.805,6.029,13.3042,4.60119,2470.917,2023-12-25T10:42:32Z
2023-12-25T08:43:04Z,42.805,6.029,13.3036,4.60119,2470.904,2023-12-25T10:45:35Z
2023-12-25T08:46:07Z,42.805,6.029,13.3048,4.60118,2470.94,2023-12-25T10:48:38Z
2023-12-25T08:49:10Z,42.805,6.029,13.3053,4.60125,2470.88,2023-12-25T10:51:41Z
2023-12-25T08:52:13Z,42.805,6.029,13.3054,4.60118,2470.866,2023-12-25T10:54:44Z
2023-12-25T08:55:16Z,42.805,6.029,13.3036,4.60117,2470.904,2023-12-25T10:57:47Z
2023-12-25T08:58:20Z,42.805,6.029,13.3040,4.60123,2470.894,2023-12-25T11:00:50Z
2023-12-25T09:01:23Z,42.805,6.029,13.3042,4.60117,2470.857,2023-12-25T11:03:53Z
2023-12-25T09:04:26Z,42.805,6.029,13.3045,4.60125,2470.843,2023-12-25T11:06:56Z
2023-12-25T09:07:29Z,42.805,6.029,13.3067,4.60130,2470.866,2023-12-25T11:09:59Z
2023-12-25T09:10:32Z,42.805,6.029,13.3041,4.60117,2470.88,2023-12-25T11:13:02Z
2023-12-25T09:13:35Z,42.805,6.029,13.3046,4.60119,2470.88,2023-12-25T11:16:06Z
2023-12-25T09:16:38Z,42.805,6.029,13.3053,4.60145,2470.871,2023-12-25T11:19:09Z
2023-12-25T09:19:41Z,42.805,6.029,13.3051,4.60126,2470.871,2023-12-25T11:22:12Z
2023-12-25T09:22:44Z,42.805,6.029,13.3044,4.60121,2470.871,2023-12-25T11:25:15Z
2023-12-25T09:25:47Z,42.805,6.029,13.3060,4.60136,2470.871,2023-12-25T11:28:18Z
2023-12-25T09:28:50Z,42.805,6.029,13.3062,4.60139,2470.857,2023-12-25T11:31:21Z
2023-12-25T09:31:53Z,42.805,6.029,13.3042,4.60127,2470.917,2023-12-25T11:34:24Z
2023-12-25T09:34:57Z,42.805,6.029,13.3051,4.60129,2470.833,2023-12-25T11:37:27Z
2023-12-25T09:38:00Z,42.805,6.029,13.3061,4.60142,2470.833,2023-12-25T11:40:30Z
2023-12-25T09:41:03Z,42.805,6.029,13.3046,4.60143,2470.833,2023-12-25T11:43:33Z
2023-12-25T09:44:06Z,42.805,6.029,13.3061,4.60136,2470.857,2023-12-25T11:46:36Z
2023-12-25T09:47:09Z,42.805,6.029,13.3039,4.60126,2470.857,2023-12-25T11:49:39Z
2023-12-25T09:50:12Z,42.805,6.029,13.3039,4.60117,2470.917,2023-12-25T11:52:43Z
2023-12-25T09:53:15Z,42.805,6.029,13.3065,4.60138,2470.88,2023-12-25T11:55:46Z
2023-12-25T09:56:18Z,42.805,6.029,13.3063,4.60152,2470.857,2023-12-25T11:58:49Z
2023-12-25T09:59:21Z,42.805,6.029,13.3060,4.60163,2470.88,2023-12-25T12:01:52Z
2023-12-25T10:02:24Z,42.805,6.029,13.3046,4.60156,2470.857,2023-12-25T12:04:55Z
2023-12-25T10:05:27Z,42.805,6.029,13.3048,4.60168,2470.857,2023-12-25T12:07:58Z
2023-12-25T10:08:30Z,42.805,6.029,13.3045,4.60164,2470.894,2023-12-25T12:11:01Z
2023-12-25T10:11:34Z,42.805,6.029,13.3050,4.60166,2470.847,2023-12-25T12:14:04Z
2023-12-25T10:14:37Z,42.805,6.029,13.3049,4.60175,2470.857,2023-12-25T12:17:07Z
2023-12-25T10:17:40Z,42.805,6.029,13.3051,4.60168,2470.833,2023-12-25T12:20:10Z
2023-12-25T10:20:43Z,42.805,6.029,13.3054,4.60178,2470.871,2023-12-25T12:23:13Z
2023-12-25T10:23:46Z,42.805,6.029,13.3044,4.60160,2470.833,2023-12-25T12:26:17Z
2023-12-25T10:26:49Z,42.805,6.029,13.3077,4.60173,2470.857,2023-12-25T12:29:20Z
2023-12-25T10:29:52Z,42.805,6.029,13.3045,4.60175,2470.824,2023-12-25T12:32:23Z
2023-12-25T10:32:55Z,42.805,6.029,13.3048,4.60175,2470.847,2023-12-25T12:35:26Z
2023-12-25T10:35:58Z,42.805,6.029,13.3055,4.60170,2470.824,2023-12-25T12:38:29Z
2023-12-25T10:39:01Z,42.805,6.029,13.3049,4.60180,2470.847,2023-12-25T12:41:32Z
2023-12-25T10:42:04Z,42.805,6.029,13.3046,4.60151,2470.833,2023-12-25T12:44:35Z
2023-12-25T10:45:08Z,42.805,6.029,13.3042,4.60163,2470.824,2023-12-25T12:47:38Z
2023-12-25T10:48:11Z,42.805,6.029,13.3061,4.60178,2470.857,2023-12-25T12:50:41Z
2023-12-25T10:51:14Z,42.805,6.029,13.3054,4.60172,2470.81,2023-12-25T12:53:44Z
2023-12-25T10:54:17Z,42.805,6.029,13.3046,4.60183,2470.824,2023-12-25T12:56:47Z
2023-12-25T10:57:20Z,42.805,6.029,13.3046,4.60167,2470.81,2023-12-25T12:59:50Z
2023-12-25T11:00:23Z,42.805,6.029,13.3058,4.60177,2470.81,2023-12-25T13:02:54Z
2023-12-25T11:03:26Z,42.805,6.029,13.3053,4.60174,2470.871,2023-12-25T13:05:57Z
2023-12-25T11:06:29Z,42.805,6.029,13.3040,4.60160,2470.847,2023-12-25T13:09:00Z
2023-12-25T11:09:32Z,42.805,6.029,13.3051,4.60175,2470.857,2023-12-25T13:12:03Z
2023-12-25T11:12:35Z,42.805,6.029,13.3044,4.60162,2470.833,2023-12-25T13:15:06Z
2023-12-25T11:15:38Z,42.805,6.029,13.3048,4.60157,2470.833,2023-12-25T13:18:09Z
2023-12-25T11:18:41Z,42.805,6.029,13.3039,4.60154,2470.81,2023-12-25T13:21:12Z
2023-12-25T11:21:45Z,42.805,6.029,13.3056,4.60153,2470.824,2023-12-25T13:24:15Z
2023-12-25T11:24:48Z,42.805,6.029,13.3049,4.60167,2470.81,2023-12-25T13:27:18Z
2023-12-25T11:27:51Z,42.805,6.029,13.3046,4.60170,2470.81,2023-12-25T13:30:21Z
2023-12-25T11:30:56Z,42.805,6.029,13.3054,4.60139,2470.8,2023-12-25T13:33:26Z
2023-12-25T11:33:59Z,42.805,6.029,13.3048,4.60145,2470.8,2023-12-25T13:36:29Z
2023-12-25T11:37:02Z,42.805,6.029,13.3048,4.60172,2470.81,2023-12-25T13:39:32Z
2023-12-25T11:40:05Z,42.805,6.029,13.3045,4.60178,2470.824,2023-12-25T13:42:36Z
2023-12-25T11:43:08Z,42.805,6.029,13.3052,4.60170,2470.787,2023-12-25T13:45:39Z
2023-12-25T11:46:11Z,42.805,6.029,13.3051,4.60156,2470.787,2023-12-25T13:48:42Z
2023-12-25T11:49:14Z,42.805,6.029,13.3044,4.60149,2470.8,2023-12-25T13:51:45Z
2023-12-25T11:52:17Z,42.805,6.029,13.3043,4.60155,2470.787,2023-12-25T13:54:48Z
2023-12-25T11:55:20Z,42.805,6.029,13.3040,4.60155,2470.824,2023-12-25T13:57:51Z
2023-12-25T11:58:23Z,42.805,6.029,13.3048,4.60157,2470.777,2023-12-25T14:00:54Z
2023-12-25T12:01:27Z,42.805,6.029,13.3043,4.60175,2470.81,2023-12-25T14:03:57Z
2023-12-25T12:04:30Z,42.805,6.029,13.3067,4.60178,2470.787,2023-12-25T14:07:00Z
2023-12-25T12:07:33Z,42.805,6.029,13.3040,4.60160,2470.787,2023-12-25T14:10:03Z
2023-12-25T12:10:36Z,42.805,6.029,13.3045,4.60173,2470.787,2023-12-25T14:13:06Z
2023-12-25T12:13:39Z,42.805,6.029,13.3046,4.60156,2470.81,2023-12-25T14:16:09Z
2023-12-25T12:16:42Z,42.805,6.029,13.3041,4.60178,2470.824,2023-12-25T14:19:13Z
2023-12-25T12:19:45Z,42.805,6.029,13.3046,4.60157,2470.787,2023-12-25T14:22:16Z
2023-12-25T12:22:48Z,42.805,6.029,13.3054,4.60183,2470.787,2023-12-25T14:25:19Z
2023-12-25T12:25:51Z,42.805,6.029,13.3043,4.60167,2470.81,2023-12-25T14:28:22Z
2023-12-25T12:28:54Z,42.805,6.029,13.3073,4.60164,2470.787,2023-12-25T14:31:25Z
2023-12-25T12:31:57Z,42.805,6.029,13.3052,4.60182,2470.777,2023-12-25T14:34:28Z
2023-12-25T12:35:00Z,42.805,6.029,13.3050,4.60161,2470.8,2023-12-25T14:37:31Z
2023-12-25T12:38:04Z,42.805,6.029,13.3057,4.60181,2470.777,2023-12-25T14:40:34Z
2023-12-25T12:41:07Z,42.805,6.029,13.3043,4.60176,2470.787,2023-12-25T14:43:37Z
2023-12-25T12:44:10Z,42.805,6.029,13.3046,4.60173,2470.763,2023-12-25T14:46:40Z
2023-12-25T12:47:13Z,42.805,6.029,13.3045,4.60171,2470.763,2023-12-25T14:49:44Z
2023-12-25T12:50:16Z,42.805,6.029,13.3044,4.60173,2470.763,2023-12-25T14:52:47Z
2023-12-25T12:53:19Z,42.805,6.029,13.3050,4.60162,2470.74,2023-12-25T14:55:50Z
2023-12-25T12:56:22Z,42.805,6.029,13.3055,4.60170,2470.787,2023-12-25T14:58:53Z
2023-12-25T12:59:25Z,42.805,6.029,13.3046,4.60177,2470.8,2023-12-25T15:01:56Z
2023-12-25T13:02:28Z,42.805,6.029,13.3045,4.60179,2470.8,2023-12-25T15:04:59Z
2023-12-25T13:05:31Z,42.805,6.029,13.3047,4.60189,2470.74,2023-12-25T15:08:02Z
2023-12-25T13:08:34Z,42.805,6.029,13.3054,4.60179,2470.8,2023-12-25T15:11:05Z
2023-12-25T13:11:38Z,42.805,6.029,13.3050,4.60158,2470.777,2023-12-25T15:14:08Z
2023-12-25T13:14:41Z,42.805,6.029,13.3047,4.60153,2470.777,2023-12-25T15:17:11Z
2023-12-25T13:17:44Z,42.805,6.029,13.3048,4.60172,2470.763,2023-12-25T15:20:14Z
2023-12-25T13:20:47Z,42.805,6.029,13.3069,4.60185,2470.777,2023-12-25T15:23:17Z
2023-12-25T13:23:50Z,42.805,6.029,13.3045,4.60160,2470.74,2023-12-25T15:26:21Z
2023-12-25T13:26:53Z,42.805,6.029,13.3058,4.60169,2470.787,2023-12-25T15:29:24Z
2023-12-25T13:29:56Z,42.805,6.029,13.3041,4.60190,2470.777,2023-12-25T15:32:27Z
2023-12-25T13:32:59Z,42.805,6.029,13.3058,4.60187,2470.763,2023-12-25T15:35:30Z
2023-12-25T13:36:02Z,42.805,6.029,13.3040,4.60167,2470.8,2023-12-25T15:38:33Z
2023-12-25T13:39:05Z,42.805,6.029,13.3054,4.60175,2470.787,2023-12-25T15:41:36Z
2023-12-25T13:42:08Z,42.805,6.029,13.3054,4.60169,2470.8,2023-12-25T15:44:39Z
2023-12-25T13:45:11Z,42.805,6.029,13.3050,4.60166,2470.777,2023-12-25T15:47:42Z
2023-12-25T13:48:15Z,42.805,6.029,13.3043,4.60183,2470.787,2023-12-25T15:50:45Z
2023-12-25T13:51:18Z,42.805,6.029,13.3046,4.60152,2470.777,2023-12-25T15:53:48Z
2023-12-25T13:54:21Z,42.805,6.029,13.3071,4.60166,2470.763,2023-12-25T15:56:51Z
2023-12-25T13:57:24Z,42.805,6.029,13.3046,4.60185,2470.8,2023-12-25T15:59:54Z
2023-12-25T14:00:27Z,42.805,6.029,13.3053,4.60184,2470.824,2023-12-25T16:02:58Z
2023-12-25T14:03:30Z,42.805,6.029,13.3053,4.60179,2470.763,2023-12-25T16:06:01Z
2023-12-25T14:06:33Z,42.805,6.029,13.3063,4.60183,2470.787,2023-12-25T16:09:04Z
2023-12-25T14:09:36Z,42.805,6.029,13.3041,4.60172,2470.777,2023-12-25T16:12:07Z
2023-12-25T14:12:39Z,42.805,6.029,13.3050,4.60175,2470.8,2023-12-25T16:15:10Z
2023-12-25T14:15:42Z,42.805,6.029,13.3051,4.60199,2470.787,2023-12-25T16:18:13Z
2023-12-25T14:18:45Z,42.805,6.029,13.3063,4.60202,2470.8,2023-12-25T16:21:16Z
2023-12-25T14:21:49Z,42.805,6.029,13.3068,4.60192,2470.824,2023-12-25T16:24:19Z
2023-12-25T14:24:52Z,42.805,6.029,13.3049,4.60185,2470.787,2023-12-25T16:27:22Z
2023-12-25T14:27:55Z,42.805,6.029,13.3073,4.60210,2470.824,2023-12-25T16:30:25Z
2023-12-25T14:30:58Z,42.805,6.029,13.3067,4.60179,2470.81,2023-12-25T16:33:28Z
2023-12-25T14:34:01Z,42.805,6.029,13.3067,4.60172,2470.81,2023-12-25T16:36:32Z
2023-12-25T14:37:04Z,42.805,6.029,13.3058,4.60178,2470.8,2023-12-25T16:39:35Z
2023-12-25T14:40:07Z,42.805,6.029,13.3071,4.60210,2470.787,2023-12-25T16:42:38Z
2023-12-25T14:43:10Z,42.805,6.029,13.3074,4.60198,2470.787,2023-12-25T16:45:41Z
2023-12-25T14:46:13Z,42.805,6.029,13.3071,4.60177,2470.8,2023-12-25T16:48:44Z
2023-12-25T14:49:16Z,42.805,6.029,13.3051,4.60197,2470.833,2023-12-25T16:51:47Z
2023-12-25T14:52:19Z,42.805,6.029,13.3049,4.60191,2470.81,2023-12-25T16:54:50Z
2023-12-25T14:55:23Z,42.805,6.029,13.3067,4.60188,2470.81,2023-12-25T16:57:53Z
2023-12-25T14:58:26Z,42.805,6.029,13.3055,4.60175,2470.824,2023-12-25T17:00:56Z
2023-12-25T15:01:29Z,42.805,6.029,13.3039,4.60182,2470.787,2023-12-25T17:03:59Z